Location: Lake Almanor
(40.2485°N, 121.1442°W)
Time: 22:32:01
(UTC-08:00)

N. Korean satellite - Pass Details

Date: 03 February 2020
Orbit: 456 x 505 km, 97.2° (Epoch: 27 February)

Event Time Altitude Azimuth Distance (km) Brightness Sun altitude
Rises 04:53:16 0° 32° (NNE) 2,579 10.7 -26.7°
Reaches altitude 10° 04:56:04 10° 56° (NE) 1,700 10.0 -26.2°
Maximum altitude 04:58:16 15° 93° (E) 1,405 9.8 -25.8°
Drops below altitude 10° 05:00:29 10° 130° (SE) 1,703 9.9 -25.4°
Sets 05:03:16 0° 154° (SSE) 2,586 10.6 -24.8°
